FW5426 Weather Reports


Display with metric or nautical units.
time (UTC)temp
F
wind
direction
speed
MPH
gust
MPH
rain 1hr
in
rain 24hr
in
rain mn
in
humidity
%
barometer
mb
20260510151910 80 26 11.0 19.0 0.00 0.00 0.00 16 1017.8
20260510151149 80 47 11.0 19.0 0.00 0.00 0.00 16 1017.7
20260510150649 80 31 10.0 18.0 0.00 0.00 0.00 16 1017.7
20260510150150 80 18 10.0 17.0 0.00 0.00 0.00 16 1017.7
20260510145650 80 5 9.0 17.0 0.00 0.00 0.00 16 1017.6
20260510145638 80 25 9.0 16.0 0.00 0.00 0.00 15 1017.6
20260510144650 79 67 12.0 21.0 0.00 0.00 0.00 16 1017.4
20260510144150 79 39 12.0 21.0 0.00 0.00 0.00 15 1017.4
20260510143910 79 33 11.0 20.0 0.00 0.00 0.00 15 1017.2
20260510143148 78 36 9.0 17.0 0.00 0.00 0.00 16 1017.2
20260510142916 78 27 8.0 14.0 0.00 0.00 0.00 16 1017.2
20260510142148 77 43 8.0 17.0 0.00 0.00 0.00 16 1017.0
20260510141647 77 19 9.0 17.0 0.00 0.00 0.00 16 1017.1
20260510141408 77 13 7.0 15.0 0.00 0.00 0.00 16 1016.9
20260510140647 77 345 5.0 13.0 0.00 0.00 0.00 16 1016.8
20260510140140 77 341 5.0 11.0 0.00 0.00 0.00 16 1016.8
20260510135634 77 18 6.0 14.0 0.00 0.00 0.00 16 1016.8
20260510135133 76 5 6.0 14.0 0.00 0.00 0.00 16 1016.7
20260510134633 76 9 5.0 10.0 0.00 0.00 0.00 16 1016.5
20260510134131 76 19 5.0 10.0 0.00 0.00 0.00 17 1016.4
20260510133632 76 32 5.0 9.0 0.00 0.00 0.00 17 1016.4
20260510133131 76 33 4.0 9.0 0.00 0.00 0.00 17 1016.3
20260510132632 76 10 3.0 6.0 0.00 0.00 0.00 17 1016.2
20260510132354 76 19 3.0 5.0 0.00 0.00 0.00 17 1016.2
20260510131630 76 0 4.0 7.0 0.00 0.00 0.00 17 1016.1
20260510131129 76 11 3.0 8.0 0.00 0.00 0.00 17 1016.1
20260510130630 76 355 3.0 8.0 0.00 0.00 0.00 17 1016.0
20260510130130 76 355 4.0 6.0 0.00 0.00 0.00 17 1016.0
20260510125855 75 16 4.0 8.0 0.00 0.00 0.00 17 1015.8
20260510125129 75 10 4.0 8.0 0.00 0.00 0.00 17 1015.8
20260510124629 76 27 5.0 9.0 0.00 0.00 0.00 16 1015.5
20260510124129 76 47 4.0 9.0 0.00 0.00 0.00 16 1015.3
20260510123629 76 29 3.0 7.0 0.00 0.00 0.00 16 1015.2
20260510123129 76 15 3.0 5.0 0.00 0.00 0.00 16 1015.0
20260510122627 76 348 4.0 8.0 0.00 0.00 0.00 16 1014.7
20260510122121 77 9 4.0 9.0 0.00 0.00 0.00 15 1014.7
20260510121614 77 9 4.0 9.0 0.00 0.00 0.00 15 1014.7
20260510121109 77 14 4.0 9.0 0.00 0.00 0.00 15 1014.6
20260510120603 78 0 5.0 10.0 0.00 0.00 0.00 15 1014.5
20260510120104 78 9 5.0 13.0 0.00 0.00 0.00 15 1014.4
20260510115603 78 325 5.0 13.0 0.00 0.00 0.00 15 1014.3
20260510115103 79 24 6.0 12.0 0.00 0.00 0.00 14 1014.2
20260510114605 79 5 7.0 13.0 0.00 0.00 0.00 14 1014.2
20260510114104 79 336 9.0 18.0 0.00 0.00 0.00 14 1014.2
20260510113603 80 308 8.0 18.0 0.00 0.00 0.00 14 1014.1
20260510113103 80 323 8.0 20.0 0.00 0.00 0.00 13 1014.0
20260510112602 80 333 10.0 20.0 0.00 0.00 0.00 13 1014.0
20260510112103 80 345 10.0 20.0 0.00 0.00 0.00 13 1014.0
20260510111603 80 345 10.0 17.0 0.00 0.00 0.00 13 1013.8
20260510111103 81 317 10.0 17.0 0.00 0.00 0.00 13 1013.6
20260510110603 81 355 10.0 16.0 0.00 0.00 0.00 13 1013.7
20260510110324 81 298 9.0 17.0 0.00 0.00 0.00 12 1013.5
20260510105602 81 327 9.0 17.0 0.00 0.00 0.00 12 1013.6
20260510105327 81 298 10.0 20.0 0.00 0.00 0.00 12 1013.6
20260510104606 81 331 10.0 20.0 0.00 0.00 0.00 12 1013.6
20260510104103 81 316 10.0 17.0 0.00 0.00 0.00 12 1013.5
20260510103559 82 329 10.0 17.0 0.00 0.00 0.00 12 1013.4
20260510103057 81 351 7.0 16.0 0.00 0.00 0.00 12 1013.5
20260510102819 81 330 6.0 14.0 0.00 0.00 0.00 13 1013.5
20260510102054 81 325 5.0 11.0 0.00 0.00 0.00 13 1013.4
20260510101554 81 330 7.0 15.0 0.00 0.00 0.00 12 1013.3
20260510101054 81 314 8.0 15.0 0.00 0.00 0.00 12 1013.3
20260510100815 82 314 9.0 14.0 0.00 0.00 0.00 12 1013.4
20260510100051 82 311 9.0 17.0 0.00 0.00 0.00 12 1013.4
20260510095550 82 319 8.0 17.0 0.00 0.00 0.00 12 1013.3
20260510095050 82 288 7.0 14.0 0.00 0.00 0.00 12 1013.3
20260510094550 82 302 8.0 16.0 0.00 0.00 0.00 12 1013.2
20260510094050 82 309 8.0 16.0 0.00 0.00 0.00 12 1013.2
20260510093548 82 323 6.0 15.0 0.00 0.00 0.00 12 1013.1
20260510093306 82 320 7.0 13.0 0.00 0.00 0.00 11 1012.9
20260510092816 82 327 8.0 20.0 0.00 0.00 0.00 11 1012.9
20260510092046 82 327 10.0 20.0 0.00 0.00 0.00 11 1013.1
20260510091545 82 308 11.0 20.0 0.00 0.00 0.00 11 1012.8
20260510091045 82 277 12.0 21.0 0.00 0.00 0.00 11 1012.9
20260510090545 82 287 12.0 21.0 0.00 0.00 0.00 11 1012.8
20260510090307 82 285 12.0 22.0 0.00 0.00 0.00 11 1012.8
20260510085546 82 304 12.0 22.0 0.00 0.00 0.00 11 1012.9
20260510085045 82 284 12.0 22.0 0.00 0.00 0.00 11 1012.9
20260510084545 82 306 12.0 19.0 0.00 0.00 0.00 11 1013.1
20260510084045 82 281 11.0 23.0 0.00 0.00 0.00 11 1012.9
20260510083545 83 299 11.0 23.0 0.00 0.00 0.00 11 1012.9
20260510083309 83 317 12.0 21.0 0.00 0.00 0.00 11 1012.8
20260510082545 83 320 13.0 21.0 0.00 0.00 0.00 11 1012.9
20260510082044 82 288 12.0 21.0 0.00 0.00 0.00 11 1012.9
20260510081809 81 308 10.0 21.0 0.00 0.00 0.00 11 1013.1
20260510081041 80 314 9.0 16.0 0.00 0.00 0.00 11 1013.1
20260510080539 80 325 9.0 15.0 0.00 0.00 0.00 11 1013.1
20260510080039 80 289 9.0 16.0 0.00 0.00 0.00 11 1012.9
20260510075758 80 277 10.0 18.0 0.00 0.00 0.00 11 1013.1
20260510075037 81 266 9.0 18.0 0.00 0.00 0.00 11 1013.2
20260510074537 81 284 8.0 15.0 0.00 0.00 0.00 11 1013.2
20260510074037 81 281 9.0 15.0 0.00 0.00 0.00 11 1013.2
20260510073806 82 300 9.0 14.0 0.00 0.00 0.00 11 1013.2
20260510073035 82 282 9.0 18.0 0.00 0.00 0.00 10 1013.1
20260510072537 82 292 9.0 18.0 0.00 0.00 0.00 10 1013.2
20260510072033 82 317 9.0 18.0 0.00 0.00 0.00 10 1013.2
20260510072017 81 302 8.0 17.0 0.00 0.00 0.00 10 1013.2
20260510071732 82 269 9.0 18.0 0.00 0.00 0.00 10 1013.2
20260510070532 81 316 7.0 13.0 0.00 0.00 0.00 11 1013.2
20260510070033 81 330 7.0 12.0 0.00 0.00 0.00 10 1013.2
20260510070020 82 282 7.0 15.0 0.00 0.00 0.00 10 1013.1
20260510065516 82 295 8.0 15.0 0.00 0.00 0.00 10 1013.2
20260510064531 82 268 8.0 15.0 0.00 0.00 0.00 10 1013.2
20260510064031 83 281 8.0 15.0 0.00 0.00 0.00 10 1013.3
20260510063531 83 295 8.0 14.0 0.00 0.00 0.00 10 1013.3
20260510063511 83 282 9.0 17.0 0.00 0.00 0.00 10 1013.2
20260510062755 84 279 8.0 17.0 0.00 0.00 0.00 9 1013.3
20260510062031 83 318 7.0 17.0 0.00 0.00 0.00 10 1013.3
20260510061531 83 283 7.0 17.0 0.00 0.00 0.00 10 1013.3
20260510061030 83 305 6.0 12.0 0.00 0.00 0.00 10 1013.3
20260510060531 83 280 7.0 13.0 0.00 0.00 0.00 9 1013.2
20260510060030 83 296 7.0 15.0 0.00 0.00 0.00 9 1013.1
20260510055756 83 285 7.0 12.0 0.00 0.00 0.00 9 1013.1
20260510055031 83 284 8.0 13.0 0.00 0.00 0.00 9 1012.9
20260510054533 83 279 7.0 13.0 0.00 0.00 0.00 9 1012.9
20260510054030 83 287 6.0 12.0 0.00 0.00 0.00 9 1013.1
20260510053531 83 277 5.0 12.0 0.00 0.00 0.00 9 1012.9
20260510053031 83 300 6.0 12.0 0.00 0.00 0.00 9 1013.1
20260510052531 83 299 6.0 12.0 0.00 0.00 0.00 9 1012.9
20260510052251 83 308 6.0 12.0 0.00 0.00 0.00 9 1012.9
20260510051530 83 304 6.0 12.0 0.00 0.00 0.00 9 1012.9
20260510051031 83 285 5.0 11.0 0.00 0.00 0.00 9 1012.9
20260510050755 83 319 5.0 10.0 0.00 0.00 0.00 9 1012.9
20260510050030 83 292 5.0 10.0 0.00 0.00 0.00 9 1013.1
20260510045531 84 286 5.0 11.0 0.00 0.00 0.00 9 1013.1
20260510045031 84 291 6.0 12.0 0.00 0.00 0.00 8 1013.1
20260510044531 84 292 7.0 12.0 0.00 0.00 0.00 8 1013.1
20260510044515 85 281 7.0 12.0 0.00 0.00 0.00 8 1013.1
20260510043530 85 279 7.0 14.0 0.00 0.00 0.00 8 1013.1
20260510043254 85 305 8.0 14.0 0.00 0.00 0.00 8 1013.1
20260510042531 85 301 8.0 13.0 0.00 0.00 0.00 8 1013.2
20260510042031 86 277 8.0 15.0 0.00 0.00 0.00 7 1013.1
20260510041531 86 280 8.0 15.0 0.00 0.00 0.00 7 1013.1
20260510041030 87 289 9.0 20.0 0.00 0.00 0.00 7 1012.9
20260510040757 87 279 10.0 20.0 0.00 0.00 0.00 7 1012.9
20260510040021 86 267 9.0 17.0 0.00 0.00 0.00 7 1012.8
20260510035514 86 302 8.0 16.0 0.00 0.00 0.00 7 1012.7
20260510035013 86 323 9.0 19.0 0.00 0.00 0.00 7 1012.7
20260510034734 87 297 10.0 19.0 0.00 0.00 0.00 7 1012.7
20260510034011 87 277 9.0 18.0 0.00 0.00 0.00 7 1012.7
20260510033731 87 271 8.0 16.0 0.00 0.00 0.00 7 1012.7
20260510033010 87 284 8.0 15.0 0.00 0.00 0.00 7 1012.7
20260510032735 87 283 7.0 14.0 0.00 0.00 0.00 8 1012.6
20260510032011 86 319 7.0 15.0 0.00 0.00 0.00 8 1012.6
20260510031511 87 275 8.0 15.0 0.00 0.00 0.00 8 1012.6
20260510031011 87 268 8.0 14.0 0.00 0.00 0.00 8 1012.6
20260510030511 87 254 8.0 14.0 0.00 0.00 0.00 8 1012.6
20260510030010 88 250 8.0 16.0 0.00 0.00 0.00 7 1012.5
20260510025510 88 250 7.0 16.0 0.00 0.00 0.00 7 1012.4
20260510025011 87 264 6.0 15.0 0.00 0.00 0.00 8 1012.2
20260510024510 88 275 8.0 17.0 0.00 0.00 0.00 8 1012.2
20260510024010 88 207 7.0 17.0 0.00 0.00 0.00 8 1012.0
20260510023510 87 238 5.0 10.0 0.00 0.00 0.00 8 1012.0
20260510023010 87 284 4.0 9.0 0.00 0.00 0.00 8 1011.9
20260510022507 87 232 3.0 8.0 0.00 0.00 0.00 8 1011.9
20260510022006 87 229 3.0 8.0 0.00 0.00 0.00 8 1011.7
20260510021507 87 253 3.0 7.0 0.00 0.00 0.00 9 1011.7
20260510021007 87 242 3.0 7.0 0.00 0.00 0.00 9 1011.6
20260510020505 88 231 3.0 7.0 0.00 0.00 0.00 9 1011.7
20260510020449 88 222 3.0 6.0 0.00 0.00 0.00 8 1011.7
20260510015502 88 223 4.0 8.0 0.00 0.00 0.00 8 1011.6
20260510015224 88 243 4.0 8.0 0.00 0.00 0.00 8 1011.6
20260510014502 89 250 4.0 7.0 0.00 0.00 0.00 8 1011.5
20260510014004 89 220 4.0 8.0 0.00 0.00 0.00 8 1011.5
20260510013503 89 218 4.0 8.0 0.00 0.00 0.00 7 1011.4
20260510013006 89 233 4.0 8.0 0.00 0.00 0.00 7 1011.3
20260510012459 90 268 3.0 8.0 0.00 0.00 0.00 7 1011.4
20260510011958 90 284 1.0 8.0 0.00 0.00 0.00 7 1011.3
20260510011458 91 246 1.0 6.0 0.00 0.00 0.00 6 1011.3
20260510010958 91 161 2.0 7.0 0.00 0.00 0.00 6 1011.4
20260510010458 91 144 2.0 7.0 0.00 0.00 0.00 6 1011.3
20260510010000 91 231 3.0 6.0 0.00 0.00 0.00 6 1011.3
20260510005458 91 242 6.0 11.0 0.00 0.00 0.00 6 1011.4
20260510004958 91 204 7.0 14.0 0.00 0.00 0.00 6 1011.4
20260510004945 91 221 7.0 14.0 0.00 0.00 0.00 6 1011.4
20260510003955 91 177 6.0 12.0 0.00 0.00 0.00 6 1011.4
20260510003455 92 244 5.0 12.0 0.00 0.00 0.00 6 1011.4
20260510002954 92 232 5.0 9.0 0.00 0.00 0.00 6 1011.4
20260510002454 92 329 5.0 10.0 0.00 0.00 0.00 6 1011.5
20260510001953 92 293 5.0 13.0 0.00 0.00 0.00 6 1011.5
20260510001453 92 296 7.0 13.0 0.00 0.00 0.00 6 1011.5
20260510000958 92 200 7.0 12.0 0.00 0.00 0.00 6 1011.4
20260510000455 92 221 6.0 12.0 0.00 0.00 0.00 6 1011.6
20260509235955 92 237 6.0 12.0 0.00 0.00 0.00 6 1011.6
20260509235447 92 225 8.0 15.0 0.00 0.00 0.00 6 1011.7
20260509234942 93 229 6.0 15.0 0.00 0.00 0.00 6 1011.6
20260509234436 92 327 4.0 11.0 0.00 0.00 0.00 6 1011.6
20260509233936 92 268 6.0 13.0 0.00 0.00 0.00 6 1011.8
20260509233436 92 219 5.0 13.0 0.00 0.00 0.00 6 1011.7
20260509232936 93 158 4.0 10.0 0.00 0.00 0.00 6 1011.8
20260509232434 92 290 4.0 10.0 0.00 0.00 0.00 6 1011.8
20260509231932 92 163 6.0 15.0 0.00 0.00 0.00 6 1011.9
20260509231432 92 205 8.0 15.0 0.00 0.00 0.00 6 1011.9
20260509230932 92 310 7.0 15.0 0.00 0.00 0.00 6 1011.9
20260509230431 93 16 7.0 14.0 0.00 0.00 0.00 6 1011.9
20260509225932 93 212 7.0 14.0 0.00 0.00 0.00 6 1012.0
20260509225432 93 318 7.0 13.0 0.00 0.00 0.00 6 1012.0
20260509225411 93 293 9.0 17.0 0.00 0.00 0.00 6 1012.0
20260509224432 93 311 8.0 17.0 0.00 0.00 0.00 6 1012.0
20260509223932 92 244 4.0 16.0 0.00 0.00 0.00 6 1012.0
20260509223655 92 320 3.0 7.0 0.00 0.00 0.00 6 1012.2
20260509222931 92 5 3.0 12.0 0.00 0.00 0.00 6 1012.2
20260509222425 93 234 2.0 12.0 0.00 0.00 0.00 6 1012.4
20260509222143 92 65 3.0 9.0 0.00 0.00 0.00 7 1012.4
20260509221413 92 277 3.0 9.0 0.00 0.00 0.00 6 1012.4
20260509220908 92 277 4.0 11.0 0.00 0.00 0.00 6 1012.5
20260509220403 92 229 7.0 15.0 0.00 0.00 0.00 6 1012.6
20260509215904 92 328 8.0 16.0 0.00 0.00 0.00 7 1012.7
20260509215404 92 258 6.0 16.0 0.00 0.00 0.00 7 1012.6
20260509214903 92 302 6.0 12.0 0.00 0.00 0.00 7 1012.6
20260509214403 92 5 7.0 15.0 0.00 0.00 0.00 6 1012.8
20260509214123 92 307 6.0 15.0 0.00 0.00 0.00 6 1012.9
20260509213405 92 200 5.0 13.0 0.00 0.00 0.00 6 1013.2
20260509212904 92 147 6.0 15.0 0.00 0.00 0.00 6 1013.3
20260509212404 92 281 10.0 16.0 0.00 0.00 0.00 6 1013.4
20260509211903 92 234 9.0 17.0 0.00 0.00 0.00 6 1013.4
20260509211403 93 254 8.0 17.0 0.00 0.00 0.00 7 1013.5
20260509210904 92 319 8.0 14.0 0.00 0.00 0.00 6 1013.5
20260509210627 91 242 7.0 14.0 0.00 0.00 0.00 7 1013.6
20260509205903 91 200 6.0 13.0 0.00 0.00 0.00 7 1013.7
20260509205403 91 184 5.0 10.0 0.00 0.00 0.00 7 1013.7
20260509204903 92 197 6.0 13.0 0.00 0.00 0.00 7 1013.7
20260509204403 92 261 7.0 13.0 0.00 0.00 0.00 7 1013.8
20260509203901 92 290 8.0 14.0 0.00 0.00 0.00 7 1014.0
20260509203356 91 297 6.0 14.0 0.00 0.00 0.00 7 1014.1
20260509202849 91 339 7.0 21.0 0.00 0.00 0.00 8 1014.1
20260509202343 91 326 8.0 21.0 0.00 0.00 0.00 7 1014.2
20260509202058 91 232 8.0 15.0 0.00 0.00 0.00 7 1014.2
20260509201340 91 229 7.0 13.0 0.00 0.00 0.00 7 1014.2
20260509200840 92 302 4.0 11.0 0.00 0.00 0.00 7 1014.3
20260509200340 92 42 4.0 8.0 0.00 0.00 0.00 7 1014.3
20260509195840 91 135 5.0 10.0 0.00 0.00 0.00 8 1014.4
20260509195602 91 175 6.0 14.0 0.00 0.00 0.00 8 1014.4
20260509194838 90 207 5.0 14.0 0.00 0.00 0.00 8 1014.5
20260509194601 90 140 4.0 12.0 0.00 0.00 0.00 10 1014.5
20260509193835 89 126 5.0 12.0 0.00 0.00 0.00 10 1014.6
20260509193333 90 75 5.0 12.0 0.00 0.00 0.00 10 1014.7
20260509192834 90 200 4.0 9.0 0.00 0.00 0.00 11 1014.9
20260509192333 89 116 4.0 9.0 0.00 0.00 0.00 12 1015.0
20260509191832 89 172 4.0 11.0 0.00 0.00 0.00 11 1015.1
20260509191331 89 175 5.0 13.0 0.00 0.00 0.00 12 1015.1
20260509190831 87 194 6.0 13.0 0.00 0.00 0.00 12 1015.1
20260509190331 87 178 6.0 14.0 0.00 0.00 0.00 13 1015.2
20260509190311 87 183 6.0 14.0 0.00 0.00 0.00 13 1015.2
20260509185552 87 163 6.0 12.0 0.00 0.00 0.00 13 1015.3
20260509184830 87 198 5.0 12.0 0.00 0.00 0.00 13 1015.4
20260509184325 86 152 5.0 10.0 0.00 0.00 0.00 14 1015.6
20260509183819 85 157 5.0 10.0 0.00 0.00 0.00 14 1015.8
20260509183313 85 158 6.0 11.0 0.00 0.00 0.00 14 1015.8
20260509182810 85 220 5.0 11.0 0.00 0.00 0.00 13 1015.8
20260509182310 85 184 6.0 10.0 0.00 0.00 0.00 14 1015.9
20260509181809 85 148 6.0 12.0 0.00 0.00 0.00 15 1015.9
20260509181310 84 148 5.0 12.0 0.00 0.00 0.00 14 1016.0
20260509180809 83 147 5.0 11.0 0.00 0.00 0.00 14 1016.0
20260509180309 83 216 5.0 11.0 0.00 0.00 0.00 15 1016.1
20260509175812 83 59 5.0 12.0 0.00 0.00 0.00 15 1016.1
20260509175310 83 163 5.0 12.0 0.00 0.00 0.00 15 1016.2
20260509175032 83 153 4.0 11.0 0.00 0.00 0.00 15 1016.2
20260509174309 82 207 4.0 11.0 0.00 0.00 0.00 16 1016.2
20260509173810 82 188 3.0 10.0 0.00 0.00 0.00 16 1016.4
20260509173536 81 111 3.0 8.0 0.00 0.00 0.00 17 1016.4
20260509172809 80 227 4.0 8.0 0.00 0.00 0.00 17 1016.4
20260509172309 81 213 4.0 9.0 0.00 0.00 0.00 17 1016.4
20260509171811 80 163 4.0 9.0 0.00 0.00 0.00 18 1016.5
20260509171309 80 200 3.0 8.0 0.00 0.00 0.00 18 1016.7
20260509170809 80 174 3.0 8.0 0.00 0.00 0.00 19 1016.5
20260509170309 79 126 4.0 8.0 0.00 0.00 0.00 19 1016.5
20260509165810 79 225 3.0 7.0 0.00 0.00 0.00 20 1016.5
20260509165309 78 178 3.0 7.0 0.00 0.00 0.00 21 1016.7
20260509164809 78 205 3.0 7.0 0.00 0.00 0.00 21 1016.7
20260509164309 78 226 3.0 7.0 0.00 0.00 0.00 21 1016.5
20260509163810 77 130 4.0 9.0 0.00 0.00 0.00 21 1016.5
20260509163309 76 193 4.0 9.0 0.00 0.00 0.00 22 1016.4
20260509163034 76 187 4.0 8.0 0.00 0.00 0.00 22 1016.4
20260509162307 76 284 4.0 9.0 0.00 0.00 0.00 23 1016.3
20260509162023 76 165 3.0 9.0 0.00 0.00 0.00 24 1016.4
20260509161304 74 133 3.0 7.0 0.00 0.00 0.00 24 1016.4
20260509160804 74 201 4.0 6.0 0.00 0.00 0.00 25 1016.4
20260509160742 74 201 4.0 8.0 0.00 0.00 0.00 25 1016.4
20260509155804 74 163 4.0 8.0 0.00 0.00 0.00 25 1016.3
20260509155306 73 236 5.0 8.0 0.00 0.00 0.00 25 1016.3
20260509154804 73 140 4.0 8.0 0.00 0.00 0.00 25 1016.4
20260509154303 73 178 4.0 9.0 0.00 0.00 0.00 25 1016.4
20260509153803 73 202 4.0 9.0 0.00 0.00 0.00 25 1016.4
20260509153526 72 227 4.0 7.0 0.00 0.00 0.00 26 1016.5
20260509152804 72 128 3.0 7.0 0.00 0.00 0.00 26 1016.4
20260509152306 71 146 3.0 7.0 0.00 0.00 0.00 26 1016.4